This is the latest recevied weather packets stored in our database for station/object VU3CAM-13. If no packets are shown the sender has not sent any weather packets the latest 10 day(s).
| Time | Temp. | Humidity | Pressure | Rain* | Wind** | Luminosity | Snow |
|---|---|---|---|---|---|---|---|
| 1788600624 | 30° C | 50% | 910.7 hPa | - | - | - | - |
| 1788600024 | 30° C | 50% | 910.7 hPa | - | - | - | - |
| 1788599424 | 30° C | 50% | 910.8 hPa | - | - | - | - |
| 1788598823 | 30° C | 50% | 910.9 hPa | - | - | - | - |
| 1788598223 | 30° C | 51% | 911 hPa | - | - | - | - |
| 1788597623 | 30° C | 51% | 911.2 hPa | - | - | - | - |
| 1788597023 | 30° C | 51% | 911.3 hPa | - | - | - | - |
| 1788596423 | 30° C | 51% | 911.4 hPa | - | - | - | - |
| 1788595823 | 29.44° C | 52% | 911.6 hPa | - | - | - | - |
| 1788595224 | 30° C | 52% | 911.7 hPa | - | - | - | - |
| 1788594623 | 29.44° C | 53% | 911.9 hPa | - | - | - | - |
| 1788594023 | 29.44° C | 53% | 911.9 hPa | - | - | - | - |
| 1788593423 | 28.89° C | 53% | 912.1 hPa | - | - | - | - |
| 1788592823 | 29.44° C | 53% | 912.3 hPa | - | - | - | - |
| 1788592223 | 29.44° C | 54% | 912.6 hPa | - | - | - | - |
| 1788591623 | 28.89° C | 55% | 912.7 hPa | - | - | - | - |
| 1788591023 | 28.89° C | 55% | 912.9 hPa | - | - | - | - |
| 1788590423 | 28.33° C | 55% | 913 hPa | - | - | - | - |
| 1788589823 | 28.89° C | 55% | 913.1 hPa | - | - | - | - |
| 1788589223 | 28.89° C | 56% | 913.3 hPa | - | - | - | - |
| 1788588623 | 28.33° C | 57% | 913.4 hPa | - | - | - | - |
| 1788587423 | 27.78° C | 58% | 913.7 hPa | - | - | - | - |
| 1788586823 | 27.78° C | 60% | 913.7 hPa | - | - | - | - |
| 1788564623 | 27.22° C | 64% | 912.2 hPa | - | - | - | - |
| 1788561623 | 27.22° C | 66% | 911.9 hPa | - | - | - | - |
* Rain since midnight (hover to see other rain measurements)
** Current wind speed in m/s (hover to see current wind gust speed)